Simultaneous Nadir Overpasses (SNOs) Predictions

Prediction of SNOs between GOES-16 and METOP-C Satellite Orbit:

Table of predicted SNOs for the next 14.0 days since TLE Epoch: 11/25/2023
Index Date Time (GOES-16) GOES-16 Lat,Lon METOP-C Lat,Lon Distance(km) Time Diff (sec)
1 11/26/2023 14:43:54 -0.05, -75.26 0.62, -78.18 333.18 80
2 11/27/2023 14:20:35 -0.05, -75.29 -0.52, -73.19 238.72 80
3 11/29/2023 02:42:16 0.04, -75.29 -0.49, -77.79 283.55 80
4 11/30/2023 02:18:56 0.03, -75.32 0.60, -72.79 288.70 80
5 12/01/2023 14:40:29 -0.03, -75.40 0.41, -77.36 222.61 80
6 12/02/2023 14:17:10 -0.03, -75.44 -0.68, -72.36 350.20 80
7 12/04/2023 02:38:50 0.02, -75.46 -0.30, -76.96 170.52 80
8 12/05/2023 02:15:31 0.02, -75.49 0.80, -71.96 402.73 80
9 12/06/2023 14:37:04 -0.02, -75.59 0.20, -76.53 107.19 80
10 12/07/2023 14:13:45 -0.01, -75.63 -0.91, -71.53 466.53 80
11 12/09/2023 02:35:24 0.01, -75.66 -0.12, -76.12 52.95 80
